Cairns, Queensland

7:42 AM AEST on February 07, 2016 (GMT +1000)
Cairns International

Weather History for YBCS - October, 2010

Change the Weather History Date:

Saturday, October 2, 2010

  Actual Average Record
Temperature  
Mean Temperature 76 °F -  
Max Temperature 79 °F 85 °F - ()
Min Temperature 72 °F 69 °F - ()
Cooling Degree Days 10    
Growing Degree Days 26 (Base 50)    
Moisture  
Dew Point 72 °F    
Average Humidity 89    
Maximum Humidity 100    
Minimum Humidity 74    
Precipitation  
Precipitation 0.98 in 0.06 in - ()
Sea Level Pressure  
Sea Level Pressure 29.98 in    
Wind  
Wind Speed 12 mph ()    
Max Wind Speed 25 mph    
Max Gust Speed -    
Visibility 5.4 miles    
Events Rain    
T = Trace of Precipitation, MM = Missing Value Source: Averaged Metar Reports

Daily Weather History Graph

Daily Weather History Graph

Search for Another Location

Airport or City:

Trip Planner

Search our weather history database for the weather conditions in past years. The results will help you decide how hot, cold, wet, or windy it might be!

Date:

Astronomy

Oct. 02, 2010 Rise Set
Actual Time 5:59 AM AEST 6:14 PM AEST
Civil Twilight 5:37 AM AEST 6:35 PM AEST
Nautical Twilight 5:12 AM AEST 7:01 PM AEST
Astronomical Twilight 4:46 AM AEST 7:26 PM AEST
Moon 1:06 AM AEST (10/2) 12:36 PM AEST (10/2)
Length of Visible Light 12h 58m
Length of Day
12h 15m
Last Quarter, 40% of the Moon is Illuminated
Oct 2
Last Quarter
Oct 8
New
Oct 15
First Quarter
Oct 23
Full
Oct 30
Last Quarter

Hourly Weather History & Observations

Time (AEST) Temp. Dew Point Humidity Pressure Visibility Wind Dir Wind Speed Gust Speed Precip Events Conditions
12:00 AM 74 °F 71 °F 87% 29.99 in 9 mi South 12.7 mph - -   Partly Cloudy
12:00 AM 73.4 °F 71.6 °F 94% 29.98 in 6.2 mi South 12.7 mph - N/A   Scattered Clouds
12:30 AM 73.4 °F 71.6 °F 94% 29.98 in 6.2 mi South 10.4 mph - N/A   Scattered Clouds
1:00 AM 74 °F 71 °F 86% 29.98 in - South 12.7 mph - -  
1:00 AM 73.4 °F 71.6 °F 94% 29.98 in 6.2 mi South 12.7 mph - N/A   Scattered Clouds
1:30 AM 75.2 °F 69.8 °F 83% 29.95 in 3.7 mi South 11.5 mph - N/A Rain Light Rain Showers
2:00 AM 73.4 °F 71.6 °F 94% 29.95 in 3.1 mi South 11.5 mph - N/A Rain Rain Showers
2:30 AM 73.4 °F 71.6 °F 94% 29.95 in 6.2 mi South 15.0 mph - N/A   Mostly Cloudy
3:00 AM 74 °F 70 °F 82% 29.95 in 12 mi South 12.7 mph - -   Partly Cloudy
3:00 AM 73.4 °F 69.8 °F 88% 29.95 in 6.2 mi South 12.7 mph - N/A   Scattered Clouds
3:30 AM 73.4 °F 69.8 °F 88% 29.95 in 6.2 mi South 12.7 mph - N/A   Mostly Cloudy
4:00 AM 74 °F 70 °F 84% 29.95 in - South 11.5 mph - -  
4:00 AM 73.4 °F 69.8 °F 88% 29.95 in 6.2 mi South 11.5 mph - N/A   Mostly Cloudy
5:00 AM 73.4 °F 69.8 °F 88% 29.95 in 6.2 mi South 12.7 mph - N/A   Mostly Cloudy
5:30 AM 73.4 °F 69.8 °F 88% 29.95 in 6.2 mi SSE 13.8 mph - N/A   Mostly Cloudy
6:00 AM 74 °F 71 °F 86% 29.97 in 6 mi South 13.8 mph - - Rain Light Rain Showers
6:00 AM 73.4 °F 69.8 °F 88% 29.95 in 6.2 mi South 13.8 mph - N/A Rain Light Rain Showers
6:30 AM 73.4 °F 69.8 °F 88% 29.98 in 6.2 mi South 12.7 mph - N/A   Scattered Clouds
7:00 AM 75 °F 71 °F 82% 29.99 in - South 11.5 mph - -  
7:00 AM 75.2 °F 69.8 °F 83% 29.98 in 6.2 mi South 11.5 mph - N/A   Scattered Clouds
7:30 AM 75.2 °F 69.8 °F 83% 29.98 in 6.2 mi South 10.4 mph - N/A   Scattered Clouds
8:00 AM 75.2 °F 71.6 °F 89% 30.01 in 5.0 mi South 13.8 mph - N/A Rain Light Rain Showers
8:30 AM 77.0 °F 71.6 °F 83% 30.01 in 6.2 mi South 11.5 mph - N/A   Mostly Cloudy
9:00 AM 77 °F 72 °F 81% 30.02 in 12 mi South 13.8 mph - -   Partly Cloudy
9:00 AM 77.0 °F 71.6 °F 83% 30.01 in 6.2 mi South 13.8 mph - N/A   Mostly Cloudy
9:30 AM 78.8 °F 73.4 °F 83% 30.01 in 6.2 mi South 12.7 mph - N/A Rain Light Rain Showers
10:00 AM 79 °F 73 °F 78% 30.02 in - SSE 12.7 mph - -  
10:00 AM 78.8 °F 73.4 °F 83% 30.01 in 5.6 mi SSE 12.7 mph - N/A   Mostly Cloudy
10:08 AM 78.8 °F 73.4 °F 83% 30.01 in 3.1 mi SSE 12.7 mph - N/A Rain Light Rain Showers
10:14 AM 77.0 °F 73.4 °F 89% 30.01 in 5.6 mi SSE 25.3 mph - N/A Rain Light Rain Showers
10:30 AM 77.0 °F 73.4 °F 89% 30.01 in 6.2 mi SSE 15.0 mph - N/A Rain Light Rain Showers
11:00 AM 78.8 °F 71.6 °F 78% 30.01 in 6.2 mi SE 19.6 mph - N/A Rain Light Rain Showers
11:30 AM 77.0 °F 73.4 °F 89% 30.01 in 6.2 mi SSE 15.0 mph - N/A Rain Light Rain Showers
12:00 PM 79 °F 72 °F 74% 29.99 in 9 mi SE 17.3 mph - - Rain Light Rain Showers
12:00 PM 78.8 °F 71.6 °F 78% 29.98 in 5.6 mi SE 17.3 mph - N/A Rain Light Rain Showers
12:18 PM 78.8 °F 73.4 °F 83% 29.98 in 3.1 mi SSE 16.1 mph - N/A Rain Light Rain Showers
12:26 PM 77.0 °F 73.4 °F 89% 29.98 in 4.3 mi SSE 18.4 mph - N/A Rain Light Rain Showers
12:30 PM 77.0 °F 73.4 °F 89% 29.98 in 5.0 mi SSE 17.3 mph - N/A Rain Light Rain Showers
1:00 PM 76 °F 73 °F 88% 29.98 in - SSE 13.8 mph - -  
1:00 PM 77.0 °F 73.4 °F 89% 29.95 in 6.2 mi SSE 13.8 mph - N/A Rain Light Rain Showers
1:16 PM 77.0 °F 71.6 °F 83% 29.95 in 3.1 mi SSE 12.7 mph - N/A Rain Light Rain Showers
1:23 PM 75.2 °F 73.4 °F 94% 29.95 in 3.1 mi SE 17.3 mph - N/A   Overcast
1:30 PM 75.2 °F 73.4 °F 94% 29.95 in 4.3 mi SE 17.3 mph - N/A Rain Light Rain Showers
1:40 PM 75.2 °F 73.4 °F 94% 29.95 in 4.3 mi SE 19.6 mph - N/A Rain Light Rain Showers
2:00 PM 77.0 °F 71.6 °F 83% 29.95 in 5.6 mi SSE 17.3 mph - N/A   Mostly Cloudy
2:34 PM 77.0 °F 73.4 °F 89% 29.92 in 3.7 mi SSE 12.7 mph - N/A Rain Light Rain Showers
2:39 PM 77.0 °F 73.4 °F 89% 29.92 in 0.9 mi ESE 10.4 mph - N/A Rain Rain Showers
3:00 PM 74 °F 72 °F 91% 29.94 in 2 mi SE 20.7 mph - - Rain Heavy Rain Showers
3:00 PM 75.2 °F 71.6 °F 89% 29.95 in 1.9 mi SE 20.7 mph - N/A Rain Heavy Rain Showers
3:30 PM 73.4 °F 73.4 °F 100% 29.95 in 2.5 mi SSE 8.1 mph - N/A Rain Light Rain Showers
4:00 PM 73 °F 72 °F 95% 29.96 in - SSE 10.4 mph - -  
4:00 PM 73.4 °F 71.6 °F 94% 29.95 in 2.5 mi SSE 10.4 mph - N/A Rain Light Rain Showers
4:11 PM 73.4 °F 71.6 °F 94% 29.95 in 3.1 mi SSE 11.5 mph - N/A Rain Light Rain Showers
4:25 PM 73.4 °F 71.6 °F 94% 29.95 in 1.9 mi SE 11.5 mph - N/A Rain Rain
4:30 PM 73.4 °F 71.6 °F 94% 29.95 in 1.9 mi SE 10.4 mph - N/A Rain Rain
4:45 PM 73.4 °F 71.6 °F 94% 29.95 in 3.1 mi SSE 9.2 mph - N/A Rain Rain
4:51 PM 73.4 °F 71.6 °F 94% 29.95 in 4.3 mi SSE 10.4 mph - N/A Rain Light Rain
5:00 PM 73.4 °F 71.6 °F 94% 29.95 in 5.6 mi SSE 8.1 mph - N/A Rain Light Rain
5:30 PM 75.2 °F 71.6 °F 89% 29.95 in 6.2 mi South 8.1 mph - N/A Rain Light Rain
6:00 PM 74 °F 72 °F 91% 29.97 in 12 mi South 12.7 mph - - Rain Light Rain
6:00 PM 73.4 °F 71.6 °F 94% 29.98 in 5.0 mi South 12.7 mph - N/A Rain Light Rain
6:30 PM 73.4 °F 71.6 °F 94% 29.98 in 6.2 mi South 12.7 mph - N/A   Light Drizzle
7:00 PM 74 °F 71 °F 86% 29.99 in - South 12.7 mph - -  
7:00 PM 73.4 °F 71.6 °F 94% 29.98 in 6.2 mi South 12.7 mph - N/A   Mostly Cloudy
7:30 PM 73.4 °F 71.6 °F 94% 29.98 in 4.3 mi South 12.7 mph - N/A   Heavy Drizzle
8:00 PM 73.4 °F 71.6 °F 94% 30.01 in 6.2 mi South 13.8 mph - N/A Rain Light Rain Showers
8:30 PM 73.4 °F 69.8 °F 88% 30.01 in 6.2 mi South 11.5 mph - N/A   Scattered Clouds
9:00 PM 73 °F 71 °F 91% 30.01 in 9 mi South 12.7 mph - - Rain Light Rain Showers
9:00 PM 73.4 °F 71.6 °F 94% 30.01 in 6.2 mi South 12.7 mph - N/A Rain Light Rain Showers
9:30 PM 73.4 °F 71.6 °F 94% 30.01 in 6.2 mi South 13.8 mph - N/A   Light Drizzle
10:00 PM 74 °F 71 °F 88% 30.02 in - South 12.7 mph - -  
10:00 PM 73.4 °F 71.6 °F 94% 30.01 in 6.2 mi South 12.7 mph - N/A   Scattered Clouds
10:30 PM 73.4 °F 71.6 °F 94% 30.01 in 6.2 mi South 12.7 mph - N/A   Light Drizzle
10:48 PM 73.4 °F 71.6 °F 94% 30.01 in 3.1 mi South 11.5 mph - N/A Rain Rain Showers
10:53 PM 73.4 °F 71.6 °F 94% 30.01 in 1.9 mi South 11.5 mph - N/A Rain Heavy Rain Showers
11:00 PM 73.4 °F 71.6 °F 94% 30.01 in 4.3 mi South 10.4 mph - N/A Rain Light Rain Showers
11:12 PM 73.4 °F 71.6 °F 94% 30.01 in 6.2 mi South 13.8 mph - N/A   Mostly Cloudy
11:30 PM 73.4 °F 71.6 °F 94% 29.98 in 6.2 mi South 12.7 mph - N/A   Mostly Cloudy